Weather History for K7BM - May, 2014

Change the Weather History Date:

Saturday, May 10, 2014

  Actual Average Record
Temperature  
Mean Temperature 42 °F -  
Max Temperature 51 °F - - ()
Min Temperature 33 °F - - ()
Degree Days  
Heating Degree Days 23    
Moisture  
Dew Point 28 °F    
Average Humidity 59    
Maximum Humidity 93    
Minimum Humidity 26    
Precipitation  
Precipitation 0.00 in - - ()
Sea Level Pressure  
Sea Level Pressure 29.98 in    
Wind  
Wind Speed 7 mph (West)    
Max Wind Speed 26 mph    
Max Gust Speed 41 mph    
Visibility 9 miles    
Events Fog , Rain , Snow    
T = Trace of Precipitation, MM = Missing Value Source: NWS Daily Summary

Daily Weather History Graph

Daily Weather History Graph

Search for Another Location

Airport or City:

Trip Planner

Search our weather history database for the weather conditions in past years. The results will help you decide how hot, cold, wet, or windy it might be!

Date:

Astronomy

May. 10, 2014 Rise Set
Actual Time 5:57 AM MDT 8:05 PM MDT
Civil Twilight 5:27 AM MDT 8:35 PM MDT
Nautical Twilight 4:51 AM MDT 9:11 PM MDT
Astronomical Twilight 4:12 AM MDT 9:51 PM MDT
Moon 4:06 PM MDT (5/10) 3:29 AM MDT (5/10)
Length of Visible Light 15h 07m
Length of Day
14h 08m
Waxing Gibbous, 82% of the Moon is Illuminated
May 10
Waxing Gibbous
May 14
Full
May 21
Last Quarter
May 28
New
Jun 5
First Quarter

Hourly Weather History & Observations

Time (MDT) Temp. Windchill Dew Point Humidity Pressure Visibility Wind Dir Wind Speed Gust Speed Precip Events Conditions
12:14 AM 35.6 °F - 32.0 °F 87% 30.07 in 4.0 mi Calm Calm - N/A Snow Light Snow
12:35 AM 35.6 °F 32.8 °F 32.0 °F 87% 30.07 in 1.2 mi West 3.5 mph - N/A Snow Light Snow
12:55 AM 35.6 °F 31.7 °F 32.0 °F 87% 30.06 in 0.8 mi ESE 4.6 mph - N/A Snow Light Snow
1:15 AM 35.6 °F - 33.8 °F 93% 30.07 in 1.0 mi Calm Calm - N/A Snow Light Snow
1:34 AM 35.6 °F - 32.0 °F 87% 30.05 in 0.5 mi Calm Calm - N/A Snow Light Snow
1:55 AM 33.8 °F 30.8 °F 32.0 °F 93% 30.04 in 0.2 mi ENE 3.5 mph - N/A Fog Fog
2:15 AM 35.6 °F 31.7 °F 32.0 °F 87% 30.04 in 2.0 mi North 4.6 mph - N/A Snow Light Snow
2:35 AM 35.6 °F - 32.0 °F 87% 30.03 in 10.0 mi Calm Calm - N/A   Mostly Cloudy
2:54 AM 35.6 °F 31.7 °F 32.0 °F 87% 30.02 in 10.0 mi WNW 4.6 mph - N/A   Scattered Clouds
3:15 AM 37.4 °F 33.8 °F 32.0 °F 81% 30.03 in 10.0 mi NW 4.6 mph 24.2 mph N/A   Scattered Clouds
3:34 AM 37.4 °F 29.3 °F 30.2 °F 75% 30.03 in 10.0 mi NW 12.7 mph 26.5 mph N/A   Clear
3:55 AM 37.4 °F 29.3 °F 28.4 °F 70% 30.02 in 10.0 mi WNW 12.7 mph 21.9 mph N/A   Clear
4:15 AM 37.4 °F 29.3 °F 28.4 °F 70% 30.02 in 10.0 mi West 12.7 mph 21.9 mph N/A   Clear
4:35 AM 37.4 °F 33.8 °F 28.4 °F 70% 30.03 in 10.0 mi NW 4.6 mph 24.2 mph N/A   Clear
4:55 AM 39.2 °F 32.5 °F 28.4 °F 65% 30.03 in 10.0 mi West 10.4 mph 20.7 mph N/A   Clear
5:15 AM 37.4 °F 33.8 °F 28.4 °F 70% 30.03 in 10.0 mi West 4.6 mph 23.0 mph N/A   Clear
5:35 AM 37.4 °F 33.8 °F 30.2 °F 75% 30.03 in 10.0 mi NNW 4.6 mph - N/A   Clear
5:54 AM 35.6 °F - 30.2 °F 81% 30.03 in 10.0 mi Calm Calm - N/A   Clear
6:15 AM 37.4 °F 34.9 °F 30.2 °F 75% 30.03 in 10.0 mi East 3.5 mph - N/A   Clear
6:35 AM 35.6 °F - 30.2 °F 81% 30.03 in 10.0 mi Calm Calm - N/A   Clear
6:55 AM 37.4 °F 33.8 °F 28.4 °F 70% 30.03 in 10.0 mi ESE 4.6 mph - N/A   Clear
7:15 AM 37.4 °F 32.8 °F 32.0 °F 81% 30.03 in 10.0 mi ESE 5.8 mph - N/A   Clear
7:35 AM 37.4 °F - 32.0 °F 81% 30.03 in 10.0 mi Calm Calm - N/A   Clear
7:55 AM 41.0 °F 39.0 °F 32.0 °F 70% 30.03 in 10.0 mi ESE 3.5 mph - N/A   Clear
8:15 AM 41.0 °F - 32.0 °F 70% 30.03 in 10.0 mi Calm Calm - N/A   Clear
8:35 AM 41.0 °F - 32.0 °F 70% 30.04 in 10.0 mi Calm Calm - N/A   Clear
8:54 AM 42.8 °F - 33.8 °F 70% 30.03 in 10.0 mi Calm Calm - N/A   Scattered Clouds
9:14 AM 46.4 °F - 33.8 °F 62% 30.04 in 10.0 mi Calm Calm - N/A   Scattered Clouds
9:35 AM 46.4 °F - 30.2 °F 53% 30.03 in 10.0 mi Calm Calm - N/A   Mostly Cloudy
9:55 AM 50.0 °F - 28.4 °F 43% 30.03 in 10.0 mi Calm Calm - N/A   Mostly Cloudy
10:15 AM 50.0 °F - 28.4 °F 43% 30.02 in 10.0 mi SSW 6.9 mph - N/A   Mostly Cloudy
10:35 AM 50.0 °F - 21.2 °F 32% 30.02 in 10.0 mi NW 6.9 mph 19.6 mph N/A   Mostly Cloudy
10:55 AM 50.0 °F - 19.4 °F 30% 30.00 in 10.0 mi West 21.9 mph 32.2 mph N/A   Scattered Clouds
11:14 AM 50.0 °F - 15.8 °F 26% 30.00 in 10.0 mi West 20.7 mph 33.4 mph N/A   Scattered Clouds
11:35 AM 50.0 °F - 15.8 °F 26% 29.98 in 10.0 mi West 26.5 mph 41.4 mph N/A   Mostly Cloudy
11:54 AM 50.0 °F - 17.6 °F 28% 29.98 in 10.0 mi West 18.4 mph 39.1 mph N/A   Mostly Cloudy
12:15 PM 51.8 °F - 19.4 °F 28% 29.98 in 10.0 mi WSW 12.7 mph 32.2 mph N/A   Mostly Cloudy
12:35 PM 51.8 °F - 17.6 °F 26% 29.98 in 10.0 mi West 20.7 mph 33.4 mph N/A   Mostly Cloudy
12:55 PM 51.8 °F - 19.4 °F 28% 29.98 in 10.0 mi West 23.0 mph 35.7 mph N/A   Mostly Cloudy
1:15 PM 48.2 °F - 21.2 °F 34% 29.98 in 10.0 mi West 13.8 mph 33.4 mph N/A   Mostly Cloudy
1:35 PM 46.4 °F 39.0 °F 23.0 °F 40% 29.98 in 10.0 mi SW 19.6 mph 29.9 mph N/A   Overcast
1:55 PM 46.4 °F 39.0 °F 26.6 °F 46% 29.99 in 10.0 mi West 19.6 mph 27.6 mph N/A   Overcast
2:14 PM 44.6 °F 37.2 °F 30.2 °F 57% 29.99 in 10.0 mi West 17.3 mph 24.2 mph N/A Rain Light Rain
2:34 PM 44.6 °F 36.9 °F 32.0 °F 61% 29.98 in 10.0 mi West 18.4 mph 27.6 mph N/A Rain Light Rain
2:55 PM 46.4 °F 38.5 °F 32.0 °F 57% 29.96 in 10.0 mi West 21.9 mph 28.8 mph N/A   Scattered Clouds
3:15 PM 46.4 °F 39.0 °F 32.0 °F 57% 29.96 in 10.0 mi WNW 19.6 mph 34.5 mph N/A   Clear
3:34 PM 48.2 °F - 30.2 °F 50% 29.95 in 10.0 mi WNW 20.7 mph 35.7 mph N/A   Clear
3:55 PM 46.4 °F 38.7 °F 32.0 °F 57% 29.94 in 10.0 mi WNW 20.7 mph 28.8 mph N/A   Scattered Clouds
4:15 PM 44.6 °F 36.6 °F 32.0 °F 61% 29.95 in 10.0 mi WNW 19.6 mph 28.8 mph N/A   Scattered Clouds
4:35 PM 44.6 °F 35.9 °F 32.0 °F 61% 29.95 in 10.0 mi West 23.0 mph 29.9 mph N/A   Clear
4:55 PM 46.4 °F 38.1 °F 30.2 °F 53% 29.94 in 10.0 mi West 24.2 mph 35.7 mph N/A   Scattered Clouds
5:15 PM 44.6 °F 37.4 °F 30.2 °F 57% 29.94 in 10.0 mi West 16.1 mph 31.1 mph N/A   Mostly Cloudy
5:35 PM 44.6 °F 36.6 °F 30.2 °F 57% 29.93 in 10.0 mi West 19.6 mph 32.2 mph N/A   Scattered Clouds
5:55 PM 44.6 °F 36.6 °F 32.0 °F 61% 29.91 in 10.0 mi WNW 19.6 mph 32.2 mph N/A   Clear
6:15 PM 44.6 °F 36.1 °F 30.2 °F 57% 29.91 in 10.0 mi West 21.9 mph 29.9 mph N/A   Clear
6:35 PM 46.4 °F 41.9 °F 30.2 °F 53% 29.91 in 10.0 mi NW 9.2 mph 25.3 mph N/A   Clear
6:55 PM 46.4 °F 41.9 °F 30.2 °F 53% 29.90 in 10.0 mi NW 9.2 mph 17.3 mph N/A   Clear
7:15 PM 46.4 °F 42.4 °F 28.4 °F 50% 29.90 in 10.0 mi WNW 8.1 mph - N/A   Clear
7:35 PM 46.4 °F 41.1 °F 28.4 °F 50% 29.90 in 10.0 mi SW 11.5 mph 18.4 mph N/A   Clear
7:55 PM 46.4 °F 42.9 °F 26.6 °F 46% 29.90 in 10.0 mi WSW 6.9 mph - N/A   Clear
8:15 PM 46.4 °F 43.5 °F 26.6 °F 46% 29.90 in 10.0 mi WSW 5.8 mph - N/A   Scattered Clouds
8:35 PM 44.6 °F 39.7 °F 28.4 °F 53% 29.91 in 10.0 mi WSW 9.2 mph - N/A   Scattered Clouds
8:55 PM 46.4 °F 42.4 °F 26.6 °F 46% 29.90 in 10.0 mi West 8.1 mph - N/A   Scattered Clouds
9:15 PM 44.6 °F 42.2 °F 28.4 °F 53% 29.90 in 10.0 mi WNW 4.6 mph - N/A   Scattered Clouds
9:35 PM 44.6 °F 41.4 °F 28.4 °F 53% 29.90 in 10.0 mi WSW 5.8 mph - N/A   Clear
9:55 PM 44.6 °F - 26.6 °F 49% 29.90 in 10.0 mi Calm Calm - N/A   Scattered Clouds
10:15 PM 46.4 °F 45.2 °F 26.6 °F 46% 29.89 in 10.0 mi SW 3.5 mph - N/A   Clear
10:35 PM 46.4 °F 43.5 °F 26.6 °F 46% 29.89 in 10.0 mi WSW 5.8 mph - N/A   Clear
10:55 PM 44.6 °F 41.4 °F 26.6 °F 49% 29.88 in 10.0 mi South 5.8 mph - N/A   Clear
11:15 PM 46.4 °F 45.2 °F 26.6 °F 46% 29.87 in 10.0 mi SSW 3.5 mph - N/A   Mostly Cloudy
11:35 PM 46.4 °F 43.5 °F 26.6 °F 46% 29.86 in 10.0 mi SSE 5.8 mph - N/A   Overcast
11:55 PM 44.6 °F 40.2 °F 26.6 °F 49% 29.86 in 10.0 mi SSE 8.1 mph - N/A   Overcast